| time (UTC) | temp F | wind direction | speed MPH | gust MPH | rain 1hr in | rain 24hr in | rain mn in | humidity % | barometer mb |
| 20260905133052 | 67 | 136 | 0.0 | 0.0 | 0.01 | 0.01 | 0.01 | 89 | 1016.7 |
| 20260905131548 | 65 | 124 | 0.0 | 0.0 | 0.01 | 0.01 | 0.01 | 85 | 1016.8 |
| 20260905130048 | 63 | 124 | 0.0 | 0.0 | 0.00 | 0.00 | 0.00 | 83 | 1016.8 |
| 20260905124544 | 60 | 124 | 0.0 | 0.0 | 0.00 | 0.00 | 0.00 | 84 | 1016.7 |
| 20260905123042 | 58 | 124 | 0.0 | 0.0 | 0.00 | 0.00 | 0.00 | 84 | 1016.7 |
| 20260905121540 | 56 | 124 | 0.0 | 0.0 | 0.00 | 0.00 | 0.00 | 86 | 1016.6 |
| 20260905120048 | 56 | 124 | 0.0 | 0.0 | 0.00 | 0.00 | 0.00 | 87 | 1016.6 |
| 20260905114537 | 55 | 124 | 0.0 | 0.0 | 0.00 | 0.03 | 0.00 | 88 | 1016.3 |
| 20260905113036 | 55 | 124 | 0.0 | 0.0 | 0.00 | 0.03 | 0.00 | 89 | 1016.2 |
| 20260905111538 | 55 | 124 | 0.0 | 0.0 | 0.00 | 0.03 | 0.00 | 89 | 1016.1 |
| 20260905110033 | 55 | 124 | 0.0 | 0.0 | 0.00 | 0.03 | 0.00 | 89 | 1016.0 |
| 20260905104531 | 56 | 124 | 0.0 | 0.0 | 0.00 | 0.42 | 0.00 | 89 | 1016.1 |
| 20260905103029 | 56 | 124 | 0.0 | 0.0 | 0.00 | 0.42 | 0.00 | 89 | 1016.0 |
| 20260905101531 | 56 | 124 | 0.0 | 0.0 | 0.00 | 0.42 | 0.00 | 89 | 1016.0 |
| 20260905100026 | 57 | 124 | 0.0 | 0.0 | 0.00 | 0.42 | 0.00 | 89 | 1015.7 |
| 20260905094544 | 57 | 124 | 0.0 | 0.0 | 0.00 | 0.42 | 0.00 | 89 | 1015.5 |
| 20260905093023 | 57 | 124 | 0.0 | 0.0 | 0.00 | 0.42 | 0.00 | 89 | 1015.6 |
| 20260905091521 | 57 | 124 | 0.0 | 0.0 | 0.00 | 0.42 | 0.00 | 90 | 1015.6 |
| 20260905090019 | 58 | 124 | 0.0 | 0.0 | 0.00 | 0.42 | 0.00 | 90 | 1015.6 |
| 20260905084518 | 58 | 124 | 0.0 | 0.0 | 0.00 | 0.42 | 0.00 | 89 | 1015.6 |
| 20260905083018 | 59 | 124 | 0.0 | 0.0 | 0.00 | 0.42 | 0.00 | 90 | 1015.6 |
| 20260905081514 | 59 | 124 | 0.0 | 0.0 | 0.00 | 0.42 | 0.00 | 90 | 1015.4 |
| 20260905080011 | 60 | 124 | 0.0 | 0.0 | 0.00 | 0.42 | 0.00 | 89 | 1015.4 |
| 20260905074510 | 61 | 124 | 0.0 | 0.0 | 0.00 | 0.42 | 0.00 | 88 | 1015.5 |
| 20260905073009 | 60 | 124 | 0.0 | 0.0 | 0.00 | 0.42 | 0.00 | 88 | 1015.5 |
| 20260905071508 | 60 | 124 | 0.0 | 0.0 | 0.00 | 0.42 | 0.00 | 89 | 1015.5 |
| 20260905070006 | 60 | 124 | 0.0 | 0.0 | 0.00 | 0.42 | 0.00 | 89 | 1015.3 |
| 20260905064505 | 61 | 124 | 0.0 | 0.0 | 0.00 | 0.42 | 0.00 | 89 | 1015.2 |
| 20260905063006 | 61 | 124 | 0.0 | 0.0 | 0.00 | 0.42 | 0.00 | 89 | 1015.2 |
| 20260905061504 | 61 | 124 | 0.0 | 0.0 | 0.00 | 0.42 | 0.00 | 90 | 1015.4 |
| 20260905060002 | 61 | 124 | 0.0 | 0.0 | 0.00 | 0.42 | 0.00 | 89 | 1015.3 |
| 20260905054501 | 61 | 124 | 0.0 | 0.0 | 0.00 | 0.42 | 0.00 | 89 | 1015.3 |
| 20260905053100 | 62 | 124 | 0.0 | 0.0 | 0.00 | 0.42 | 0.00 | 89 | 1015.3 |
| 20260905051610 | 62 | 124 | 0.0 | 0.0 | 0.00 | 0.42 | 0.00 | 90 | 1015.3 |
| 20260905050103 | 62 | 124 | 0.0 | 0.0 | 0.00 | 0.42 | 0.00 | 90 | 1015.2 |
| 20260905044557 | 62 | 110 | 0.0 | 0.0 | 0.00 | 0.42 | 0.00 | 89 | 1015.1 |
| 20260905043055 | 62 | 110 | 0.0 | 0.0 | 0.00 | 0.42 | 0.00 | 90 | 1015.2 |
| 20260905041556 | 63 | 110 | 0.0 | 0.0 | 0.00 | 0.42 | 0.00 | 90 | 1015.3 |
| 20260905040104 | 63 | 110 | 0.0 | 0.0 | 0.00 | 0.42 | 0.00 | 90 | 1015.3 |
| 20260905034550 | 63 | 110 | 0.0 | 0.0 | 0.00 | 0.42 | 0.42 | 90 | 1015.4 |
| 20260905033101 | 63 | 110 | 0.0 | 0.0 | 0.00 | 0.42 | 0.42 | 90 | 1015.4 |
| 20260905031550 | 63 | 110 | 0.0 | 0.0 | 0.00 | 0.42 | 0.42 | 91 | 1015.3 |
| 20260905030054 | 63 | 110 | 0.0 | 0.0 | 0.00 | 0.42 | 0.42 | 91 | 1015.2 |
| 20260905024602 | 63 | 110 | 0.0 | 0.0 | 0.00 | 0.42 | 0.42 | 92 | 1015.3 |
| 20260905023051 | 64 | 110 | 0.0 | 0.0 | 0.00 | 0.42 | 0.42 | 92 | 1015.2 |
| 20260905021548 | 64 | 110 | 0.0 | 0.0 | 0.00 | 0.42 | 0.42 | 92 | 1015.3 |
| 20260905020047 | 65 | 110 | 0.0 | 0.0 | 0.00 | 0.42 | 0.42 | 92 | 1015.3 |
| 20260905014549 | 65 | 110 | 0.0 | 0.0 | 0.00 | 0.42 | 0.42 | 92 | 1015.1 |
| 20260905013110 | 65 | 110 | 0.0 | 0.0 | 0.00 | 0.42 | 0.42 | 92 | 1015.3 |
| 20260905011545 | 65 | 110 | 0.0 | 0.0 | 0.00 | 0.42 | 0.42 | 92 | 1015.2 |
| 20260905010053 | 66 | 110 | 0.0 | 0.0 | 0.00 | 0.42 | 0.42 | 92 | 1015.0 |
| 20260905004544 | 67 | 110 | 0.0 | 0.0 | 0.00 | 0.42 | 0.42 | 92 | 1014.8 |
| 20260905003044 | 67 | 110 | 0.0 | 0.0 | 0.00 | 0.42 | 0.42 | 91 | 1014.6 |
| 20260905001544 | 68 | 110 | 0.0 | 0.0 | 0.00 | 0.42 | 0.42 | 91 | 1014.7 |
| 20260905000045 | 68 | 110 | 0.0 | 0.0 | 0.00 | 0.42 | 0.42 | 91 | 1014.6 |
| 20260904234543 | 68 | 125 | 0.0 | 1.0 | 0.00 | 0.42 | 0.42 | 90 | 1014.5 |
| 20260904233042 | 68 | 126 | 0.0 | 0.0 | 0.00 | 0.42 | 0.42 | 90 | 1014.5 |
| 20260904231541 | 68 | 94 | 0.0 | 0.0 | 0.00 | 0.42 | 0.42 | 90 | 1014.3 |
| 20260904230058 | 68 | 117 | 0.0 | 0.0 | 0.00 | 0.42 | 0.42 | 89 | 1014.3 |
| 20260904224544 | 68 | 116 | 0.0 | 0.0 | 0.00 | 0.42 | 0.42 | 89 | 1014.2 |
| 20260904223101 | 68 | 116 | 0.0 | 0.0 | 0.00 | 0.42 | 0.42 | 88 | 1014.1 |
| 20260904221540 | 68 | 116 | 0.0 | 0.0 | 0.00 | 0.42 | 0.42 | 87 | 1014.1 |
| 20260904220044 | 69 | 117 | 0.0 | 0.0 | 0.00 | 0.42 | 0.42 | 87 | 1014.1 |
| 20260904214546 | 69 | 116 | 0.0 | 1.0 | 0.00 | 0.42 | 0.42 | 86 | 1014.1 |
| 20260904213041 | 69 | 118 | 0.0 | 0.0 | 0.00 | 0.42 | 0.42 | 87 | 1014.1 |
| 20260904211539 | 69 | 117 | 0.0 | 1.0 | 0.00 | 0.42 | 0.42 | 88 | 1014.1 |
| 20260904210037 | 69 | 113 | 0.0 | 1.0 | 0.00 | 0.42 | 0.42 | 87 | 1014.1 |
| 20260904204536 | 69 | 113 | 0.0 | 0.0 | 0.00 | 0.42 | 0.42 | 88 | 1014.0 |
| 20260904203037 | 69 | 113 | 0.0 | 1.0 | 0.00 | 0.42 | 0.42 | 87 | 1014.1 |
| 20260904201542 | 69 | 113 | 0.0 | 2.0 | 0.00 | 0.42 | 0.42 | 86 | 1014.2 |
| 20260904200044 | 69 | 105 | 0.0 | 1.0 | 0.00 | 0.42 | 0.42 | 87 | 1014.1 |
| 20260904194535 | 69 | 105 | 0.0 | 2.0 | 0.00 | 0.42 | 0.42 | 86 | 1014.1 |
| 20260904193039 | 69 | 108 | 0.0 | 5.0 | 0.00 | 0.42 | 0.42 | 84 | 1014.1 |
| 20260904191535 | 69 | 107 | 0.0 | 1.0 | 0.00 | 0.42 | 0.42 | 85 | 1014.1 |
| 20260904190033 | 69 | 110 | 0.0 | 2.0 | 0.00 | 0.42 | 0.42 | 85 | 1014.0 |
| 20260904184532 | 69 | 105 | 0.0 | 2.0 | 0.00 | 0.42 | 0.42 | 84 | 1014.0 |
| 20260904183032 | 69 | 115 | 0.0 | 1.0 | 0.00 | 0.42 | 0.42 | 86 | 1014.1 |
| 20260904181532 | 68 | 120 | 0.0 | 2.0 | 0.00 | 0.42 | 0.42 | 86 | 1014.1 |
| 20260904180031 | 68 | 122 | 0.0 | 1.0 | 0.00 | 0.42 | 0.42 | 87 | 1014.2 |
| 20260904174530 | 69 | 103 | 0.0 | 2.0 | 0.00 | 0.42 | 0.42 | 87 | 1014.4 |
| 20260904173030 | 68 | 103 | 0.0 | 0.0 | 0.00 | 0.42 | 0.42 | 86 | 1014.3 |
| 20260904171552 | 69 | 101 | 0.0 | 2.0 | 0.00 | 0.42 | 0.42 | 86 | 1014.4 |
| 20260904170028 | 69 | 120 | 0.0 | 1.0 | 0.00 | 0.42 | 0.42 | 86 | 1014.4 |
| 20260904164528 | 69 | 125 | 0.0 | 1.0 | 0.00 | 0.42 | 0.42 | 87 | 1014.4 |
| 20260904163043 | 69 | 113 | 0.0 | 2.0 | 0.00 | 0.42 | 0.42 | 88 | 1014.4 |
| 20260904161523 | 68 | 86 | 0.0 | 4.0 | 0.00 | 0.42 | 0.42 | 89 | 1014.1 |
| 20260904160023 | 68 | 110 | 0.0 | 3.0 | 0.00 | 0.42 | 0.42 | 90 | 1014.0 |
| 20260904154522 | 67 | 105 | 0.0 | 0.0 | 0.00 | 0.42 | 0.42 | 91 | 1014.5 |
| 20260904153029 | 67 | 77 | 0.0 | 1.0 | 0.00 | 0.42 | 0.42 | 91 | 1014.7 |
| 20260904151533 | 66 | 112 | 0.0 | 0.0 | 0.00 | 0.42 | 0.42 | 92 | 1015.0 |
| 20260904150021 | 66 | 116 | 0.0 | 1.0 | 0.00 | 0.42 | 0.42 | 92 | 1015.0 |
| 20260904144516 | 66 | 106 | 0.0 | 1.0 | 0.00 | 0.42 | 0.42 | 92 | 1015.0 |
| 20260904143013 | 65 | 120 | 0.0 | 1.0 | 0.00 | 0.42 | 0.42 | 91 | 1015.2 |
| 20260904141514 | 65 | 124 | 0.0 | 0.0 | 0.00 | 0.42 | 0.42 | 91 | 1015.0 |
| 20260904140009 | 65 | 124 | 0.0 | 0.0 | 0.00 | 0.42 | 0.42 | 90 | 1014.9 |
| 20260904134508 | 64 | 124 | 0.0 | 0.0 | 0.00 | 0.42 | 0.42 | 90 | 1014.5 |